Simultaneous Nadir Overpasses (SNOs) Predictions

Prediction of SNOs between GOES-16 and METOP-A Satellite Orbit:

Table of predicted SNOs for the next 14.0 days since TLE Epoch: 2/27/2021
Index Date Time (GOES-16) GOES-16 Lat,Lon METOP-A Lat,Lon Distance(km) Time Diff (sec)
1 02/27/2021 13:06:29 0.02, -75.22 -0.60, -72.51 308.46 80
2 03/01/2021 01:28:08 -0.02, -75.18 -0.46, -77.14 222.91 80
3 03/02/2021 01:04:48 -0.02, -75.19 0.65, -72.16 344.51 80
4 03/03/2021 13:23:40 0.02, -75.23 0.38, -76.76 174.81 80
5 03/04/2021 13:03:00 0.01, -75.24 -0.74, -71.79 392.86 80
6 03/06/2021 01:24:41 -0.02, -75.21 -0.27, -76.42 137.93 80
7 03/07/2021 01:01:20 -0.02, -75.22 0.79, -71.44 429.87 80
8 03/08/2021 13:20:12 0.02, -75.26 0.18, -76.05 88.88 80
9 03/09/2021 13:02:13 0.01, -75.28 -0.94, -71.07 479.32 80
10 03/11/2021 01:21:12 -0.01, -75.26 -0.13, -75.70 50.33 80
